﻿_id,日時,平均風速(m/s),平均風向,最大瞬間風速(m/s),最大風速時風向,気温(℃),湿度(%),10分間移動積算雨量(mm),1時間移動積算雨量(mm),日雨量(mm),累計雨量(mm)
1,2020-05-11T00:00:00,2.1,北西,3.5,北西,16.6,95.1,0,0,3.5,6
2,2020-05-11T00:01:00,2.2,北西,3.6,北西,16.6,95.2,0,0,0,6
3,2020-05-11T00:02:00,2.2,北西,4,北西,16.6,95.3,0,0,0,6
4,2020-05-11T00:03:00,2.3,北西,4,北西,16.6,95.3,0,0,0,6
5,2020-05-11T00:04:00,2.4,北西,4,北西,16.5,95.4,0,0,0,6
6,2020-05-11T00:05:00,2.5,北西,4,北西,16.6,95.4,0,0,0,6
7,2020-05-11T00:06:00,2.5,北西,4,北西,16.6,95.5,0,0,0,6
8,2020-05-11T00:07:00,2.5,北西,4,北西,16.5,95.5,0,0,0,6
9,2020-05-11T00:08:00,2.5,北西,4,北西,16.5,95.5,0,0,0,6
10,2020-05-11T00:09:00,2.4,北西,4,北西,16.5,95.6,0,0,0,6
11,2020-05-11T00:10:00,2.3,北西,4,北西,16.5,95.6,0,0,0,6
12,2020-05-11T00:11:00,2.2,北西,4,北西,16.5,95.6,0,0,0,6
13,2020-05-11T00:12:00,2.2,北西,3.8,北西,16.5,95.7,0,0,0,6
14,2020-05-11T00:13:00,2.1,北西,3.7,北西,16.5,95.7,0,0,0,6
15,2020-05-11T00:14:00,2.1,北西,3.7,北西,16.5,95.7,0,0,0,6
16,2020-05-11T00:15:00,2.2,北西,4.1,北西,16.5,95.8,0,0,0,6
17,2020-05-11T00:16:00,2.3,北西,4.2,北西,16.5,95.7,0,0,0,6
18,2020-05-11T00:17:00,2.4,北西,4.6,北西,16.5,95.7,0,0,0,6
19,2020-05-11T00:18:00,2.6,北西,4.6,北西,16.5,95.7,0,0,0,6
20,2020-05-11T00:19:00,2.7,北西,4.6,北西,16.5,95.7,0,0,0,6
21,2020-05-11T00:20:00,2.7,北西,4.6,北西,16.5,95.8,0,0,0,6
22,2020-05-11T00:21:00,2.8,北西,4.6,北西,16.5,95.8,0,0,0,6
23,2020-05-11T00:22:00,2.8,北西,4.6,北西,16.5,95.9,0,0,0,6
24,2020-05-11T00:23:00,2.8,北西,4.6,北西,16.5,95.9,0,0,0,6
25,2020-05-11T00:24:00,2.9,北西,4.6,北西,16.4,95.9,0,0,0,6
26,2020-05-11T00:25:00,2.8,北西,4.6,北西,16.5,95.9,0,0,0,6
27,2020-05-11T00:26:00,2.8,北西,4.6,北西,16.4,96,0,0,0,6
28,2020-05-11T00:27:00,2.7,北西,4.5,北西,16.5,96.1,0,0,0,6
29,2020-05-11T00:28:00,2.5,北西,4.3,西北西,16.4,96.1,0,0,0,6
30,2020-05-11T00:29:00,2.5,北西,4.3,西北西,16.4,96.1,0,0,0,6
31,2020-05-11T00:30:00,2.5,北西,4.3,西北西,16.4,96.1,0,0,0,6
32,2020-05-11T00:31:00,2.6,北西,4,北北西,16.4,96.1,0,0,0,6
33,2020-05-11T00:32:00,2.6,北西,4,北北西,16.4,96.1,0,0,0,6
34,2020-05-11T00:33:00,2.6,北西,4,北北西,16.4,96.2,0,0,0,6
35,2020-05-11T00:34:00,2.5,北西,3.9,北北西,16.4,96.2,0,0,0,6
36,2020-05-11T00:35:00,2.4,北西,3.7,北西,16.4,96.2,0,0,0,6
37,2020-05-11T00:36:00,2.3,北西,3.7,北西,16.4,96.3,0,0,0,6
38,2020-05-11T00:37:00,2.2,北西,3.7,北西,16.4,96.3,0,0,0,6
39,2020-05-11T00:38:00,2.3,北西,3.7,北西,16.4,96.3,0,0,0,6
40,2020-05-11T00:39:00,2.2,北西,3.7,北西,16.4,96.3,0,0,0,6
41,2020-05-11T00:40:00,2.1,北西,3.7,北西,16.4,96.3,0,0,0,6
42,2020-05-11T00:41:00,2,北西,3.7,北西,16.4,96.2,0,0,0,6
43,2020-05-11T00:42:00,2.1,北北西,3.7,北西,16.4,96.3,0,0,0,6
44,2020-05-11T00:43:00,2.1,北北西,3.7,北西,16.4,96.3,0,0,0,6
45,2020-05-11T00:44:00,2.1,北北西,3.7,北西,16.4,96.3,0,0,0,6
46,2020-05-11T00:45:00,2.1,北北西,3.7,北西,16.4,96.3,0,0,0,6
47,2020-05-11T00:46:00,2.1,北北西,3.7,北西,16.4,96.3,0,0,0,6
48,2020-05-11T00:47:00,2.2,北北西,3.7,北西,16.4,96.4,0,0,0,6
49,2020-05-11T00:48:00,2.1,北北西,3.2,北西,16.3,96.2,0,0,0,6
50,2020-05-11T00:49:00,2.2,北北西,3.2,北西,16.3,96.3,0,0,0,6
51,2020-05-11T00:50:00,2.1,北北西,3.2,北西,16.4,96.3,0,0,0,6
52,2020-05-11T00:51:00,2.1,北西,3.2,北西,16.4,96.4,0,0,0,6
53,2020-05-11T00:52:00,2,北西,3.2,北西,16.4,96.3,0,0,0,6
54,2020-05-11T00:53:00,1.9,北西,3.2,北西,16.4,96.4,0,0,0,6
55,2020-05-11T00:54:00,1.9,北西,3.2,北西,16.4,96.2,0,0,0,6
56,2020-05-11T00:55:00,1.9,北西,3.2,北西,16.4,96.2,0,0,0,6
57,2020-05-11T00:56:00,1.8,北西,3.2,北西,16.4,96.3,0,0,0,6
58,2020-05-11T00:57:00,1.7,北西,3,北西,16.4,96.2,0,0,0,6
59,2020-05-11T00:58:00,1.6,北西,2.9,北西,16.4,96.2,0,0,0,6
60,2020-05-11T00:59:00,1.5,北西,2.9,北西,16.4,96.1,0,0,0,6
61,2020-05-11T01:00:00,1.5,北西,2.9,北西,16.4,96.1,0,0,0,6
62,2020-05-11T01:01:00,1.5,北西,2.8,北西,16.4,96,0,0,0,6
63,2020-05-11T01:02:00,1.6,北西,2.8,北西,16.4,95.9,0,0,0,6
64,2020-05-11T01:03:00,1.6,北西,2.8,北西,16.4,95.9,0,0,0,6
65,2020-05-11T01:04:00,1.6,北西,2.8,北西,16.4,95.9,0,0,0,6
66,2020-05-11T01:05:00,1.7,北西,3,北西,16.3,95.9,0,0,0,6
67,2020-05-11T01:06:00,1.8,北西,3,北西,16.3,95.9,0,0,0,6
68,2020-05-11T01:07:00,1.8,北西,3,北西,16.3,95.9,0,0,0,6
69,2020-05-11T01:08:00,1.9,北西,3,北西,16.3,95.9,0,0,0,6
70,2020-05-11T01:09:00,2,北西,3.3,北北西,16.3,95.9,0,0,0,6
71,2020-05-11T01:10:00,2.1,北西,3.3,北北西,16.3,95.9,0,0,0,6
72,2020-05-11T01:11:00,2.1,北西,3.3,北北西,16.3,96,0,0,0,6
73,2020-05-11T01:12:00,2.2,北西,3.3,北北西,16.3,96,0,0,0,6
74,2020-05-11T01:13:00,2.2,北西,3.3,北北西,16.3,96,0,0,0,6
75,2020-05-11T01:14:00,2.2,北西,3.3,北北西,16.3,96,0,0,0,6
76,2020-05-11T01:15:00,2.1,北西,3.3,北北西,16.3,96,0,0,0,6
77,2020-05-11T01:16:00,2.1,北西,3.3,北北西,16.3,96.1,0,0,0,6
78,2020-05-11T01:17:00,2.1,北西,3.3,北北西,16.3,96,0,0,0,6
79,2020-05-11T01:18:00,2,北西,3.3,北北西,16.3,96,0,0,0,6
80,2020-05-11T01:19:00,1.9,北西,2.9,北西,16.3,96,0,0,0,6
81,2020-05-11T01:20:00,1.9,北西,2.9,北西,16.3,96.1,0,0,0,6
82,2020-05-11T01:21:00,1.8,北西,2.9,北西,16.3,96.1,0,0,0,6
83,2020-05-11T01:22:00,1.8,北西,2.9,北西,16.3,96.1,0,0,0,6
84,2020-05-11T01:23:00,1.7,北西,2.9,北西,16.3,96.1,0,0,0,6
85,2020-05-11T01:24:00,1.6,北西,2.4,北北西,16.3,96,0,0,0,6
86,2020-05-11T01:25:00,1.7,北西,2.6,北西,16.3,96,0,0,0,6
87,2020-05-11T01:26:00,1.7,北西,2.6,北西,16.3,96,0,0,0,6
88,2020-05-11T01:27:00,1.7,北西,2.6,北西,16.3,96,0,0,0,6
89,2020-05-11T01:28:00,1.7,北西,2.6,北西,16.3,96,0,0,0,6
90,2020-05-11T01:29:00,1.7,北西,2.6,北西,16.3,96,0,0,0,6
91,2020-05-11T01:30:00,1.7,北西,2.6,北西,16.3,96.1,0,0,0,6
92,2020-05-11T01:31:00,1.7,北西,2.6,北西,16.3,96,0,0,0,6
93,2020-05-11T01:32:00,1.7,北西,2.6,北西,16.3,96,0,0,0,6
94,2020-05-11T01:33:00,1.8,北西,2.8,北西,16.3,96.1,0,0,0,6
95,2020-05-11T01:34:00,1.8,北西,2.8,北西,16.3,96.1,0,0,0,6
96,2020-05-11T01:35:00,1.8,北西,2.8,北西,16.2,96.2,0,0,0,6
97,2020-05-11T01:36:00,1.8,北西,2.8,北西,16.2,96.1,0,0,0,6
98,2020-05-11T01:37:00,1.8,北西,2.8,北西,16.3,96.3,0,0,0,6
99,2020-05-11T01:38:00,1.9,北西,2.8,北西,16.2,96.3,0,0,0,6
100,2020-05-11T01:39:00,1.9,北西,2.8,北西,16.2,96.3,0,0,0,6
101,2020-05-11T01:40:00,1.9,北西,2.8,北西,16.2,96.3,0,0,0,6
102,2020-05-11T01:41:00,2,北西,2.8,北西,16.2,96.3,0,0,0,6
103,2020-05-11T01:42:00,2,北西,2.8,北西,16.2,96.3,0,0,0,6
104,2020-05-11T01:43:00,2,北西,2.8,北西,16.2,96.4,0,0,0,6
105,2020-05-11T01:44:00,1.9,北西,2.7,北西,16.2,96.4,0,0,0,6
106,2020-05-11T01:45:00,1.9,北西,2.7,北西,16.2,96.4,0,0,0,6
107,2020-05-11T01:46:00,1.8,北西,2.7,北西,16.2,96.5,0,0,0,6
108,2020-05-11T01:47:00,1.8,北西,2.7,北西,16.2,96.5,0,0,0,6
109,2020-05-11T01:48:00,1.8,北西,2.7,北西,16.2,96.5,0,0,0,6
110,2020-05-11T01:49:00,1.7,北北西,2.5,北北西,16.2,96.5,0,0,0,6
111,2020-05-11T01:50:00,1.7,北北西,2.5,北北西,16.2,96.5,0,0,0,6
112,2020-05-11T01:51:00,1.7,北北西,2.5,北北西,16.2,96.6,0,0,0,6
113,2020-05-11T01:52:00,1.6,北北西,2.5,北北西,16.2,96.6,0,0,0,6
114,2020-05-11T01:53:00,1.6,北西,2.5,北北西,16.1,96.5,0,0,0,6
115,2020-05-11T01:54:00,1.6,北西,2.5,北北西,16.2,96.6,0,0,0,6
116,2020-05-11T01:55:00,1.6,北西,2.5,北北西,16.1,96.6,0,0,0,6
117,2020-05-11T01:56:00,1.6,北西,2.4,北北西,16.1,96.6,0,0,0,6
118,2020-05-11T01:57:00,1.5,北西,2.3,北西,16.1,96.6,0,0,0,6
119,2020-05-11T01:58:00,1.5,北西,2.2,北西,16.1,96.7,0,0,0,6
120,2020-05-11T01:59:00,1.4,北西,2.2,北西,16.1,96.7,0,0,0,6
121,2020-05-11T02:00:00,1.3,北西,2.2,北西,16.1,96.7,0,0,0,6
122,2020-05-11T02:01:00,1.3,北西,2.2,北西,16.1,96.7,0,0,0,6
123,2020-05-11T02:02:00,1.2,北西,2,北西,16.1,96.7,0,0,0,6
124,2020-05-11T02:03:00,1.1,北西,1.9,北西,16.2,96.7,0,0,0,6
125,2020-05-11T02:04:00,1.1,北西,1.9,北西,16.2,96.8,0,0,0,6
126,2020-05-11T02:05:00,0.9,北北西,1.5,北西,16.2,96.8,0,0,0,6
127,2020-05-11T02:06:00,0.8,北北西,1.4,北西,16.2,96.8,0,0,0,6
128,2020-05-11T02:07:00,0.8,北北西,1.4,北西,16.2,96.7,0,0,0,6
129,2020-05-11T02:08:00,0.7,北北西,1.4,北西,16.2,96.7,0,0,0,6
130,2020-05-11T02:09:00,0.7,北北西,1.4,北西,16.2,96.8,0,0,0,6
131,2020-05-11T02:10:00,0.7,北北西,1.4,北西,16.2,96.8,0,0,0,6
132,2020-05-11T02:11:00,0.7,北北西,1.4,北西,16.2,96.7,0,0,0,6
133,2020-05-11T02:12:00,0.6,北北西,1.2,北北西,16.2,96.7,0,0,0,6
134,2020-05-11T02:13:00,0.6,北西,1.1,北西,16.2,96.8,0,0,0,6
135,2020-05-11T02:14:00,0.6,北西,1.1,北西,16.3,96.9,0,0,0,6
136,2020-05-11T02:15:00,0.6,北西,1.1,北西,16.3,96.9,0,0,0,6
137,2020-05-11T02:16:00,0.6,北西,1.1,北西,16.3,96.9,0,0,0,6
138,2020-05-11T02:17:00,0.6,西北西,1.1,北西,16.3,96.9,0,0,0,6
139,2020-05-11T02:18:00,0.5,西北西,1.1,北西,16.3,96.8,0,0,0,6
140,2020-05-11T02:19:00,0.5,西北西,1.1,北西,16.3,96.9,0,0,0,6
141,2020-05-11T02:20:00,0.4,北西,1.1,北西,16.3,96.7,0,0,0,6
142,2020-05-11T02:21:00,0.3,北西,1,西北西,16.3,96.8,0,0,0,6
143,2020-05-11T02:22:00,0.3,北西,0.8,西北西,16.4,96.9,0,0,0,6
144,2020-05-11T02:23:00,0.2,静穏,0.7,西北西,16.4,97,0,0,0,6
145,2020-05-11T02:24:00,0.2,静穏,0.6,西,16.4,97,0,0,0,6
146,2020-05-11T02:25:00,0.1,静穏,0.6,西,16.5,96.9,0,0,0,6
147,2020-05-11T02:26:00,0.1,静穏,0.4,北東,16.3,96.7,0,0,0,6
148,2020-05-11T02:27:00,0.1,静穏,0.4,北東,16.3,96.7,0,0,0,6
149,2020-05-11T02:28:00,0.1,静穏,0.4,北東,16.4,96.8,0,0,0,6
150,2020-05-11T02:29:00,0.1,静穏,0.4,北東,16.4,96.9,0,0,0,6
151,2020-05-11T02:30:00,0.1,静穏,0.5,北西,16.4,96.8,0,0,0,6
152,2020-05-11T02:31:00,0.1,静穏,0.5,北西,16.4,97,0,0,0,6
153,2020-05-11T02:32:00,0.1,静穏,0.5,北西,16.4,96.9,0,0,0,6
154,2020-05-11T02:33:00,0.1,静穏,0.5,北西,16.5,96.9,0,0,0,6
155,2020-05-11T02:34:00,0.1,静穏,0.5,北西,16.4,96.9,0,0,0,6
156,2020-05-11T02:35:00,0.2,静穏,0.7,北北西,16.4,96.8,0,0,0,6
157,2020-05-11T02:36:00,0.3,北北西,1,北北西,16.3,96.7,0,0,0,6
158,2020-05-11T02:37:00,0.3,北西,1.1,北北西,16.3,96.6,0,0,0,6
159,2020-05-11T02:38:00,0.4,北西,1.1,北北西,16.2,96.7,0,0,0,6
160,2020-05-11T02:39:00,0.5,北西,1.3,北,16.2,96.6,0,0,0,6
161,2020-05-11T02:40:00,0.6,北北西,1.3,北,16.1,96.7,0,0,0,6
162,2020-05-11T02:41:00,0.7,北北西,1.3,北,16.1,96.7,0,0,0,6
163,2020-05-11T02:42:00,0.8,北北西,1.3,北,16.1,96.8,0,0,0,6
164,2020-05-11T02:43:00,0.9,北北西,1.3,北,16.1,96.8,0,0,0,6
165,2020-05-11T02:44:00,1,北北西,1.3,北,16.1,96.9,0,0,0,6
166,2020-05-11T02:45:00,1,北北西,1.3,北,16.1,96.9,0,0,0,6
167,2020-05-11T02:46:00,1,北北西,1.3,北,16.1,97,0,0,0,6
168,2020-05-11T02:47:00,1,北北西,1.5,北北西,16.1,97,0,0,0,6
169,2020-05-11T02:48:00,1.1,北北西,1.9,北,16.1,97,0,0,0,6
170,2020-05-11T02:49:00,1.1,北,1.9,北,16.1,97,0,0,0,6
171,2020-05-11T02:50:00,1.1,北,1.9,北,16.1,97,0,0,0,6
172,2020-05-11T02:51:00,1.2,北,1.9,北,16.1,97,0,0,0,6
173,2020-05-11T02:52:00,1.2,北,1.9,北,16.2,97.1,0,0,0,6
174,2020-05-11T02:53:00,1.3,北,1.9,北,16.2,97.1,0,0,0,6
175,2020-05-11T02:54:00,1.3,北,1.9,北,16.2,97.2,0,0,0,6
176,2020-05-11T02:55:00,1.4,北,1.9,北,16.2,97.2,0,0,0,6
177,2020-05-11T02:56:00,1.4,北,1.9,北,16.2,97.1,0,0,0,6
178,2020-05-11T02:57:00,1.4,北,1.9,北,16.2,97.1,0,0,0,6
179,2020-05-11T02:58:00,1.4,北,1.8,北,16.2,97.1,0,0,0,6
180,2020-05-11T02:59:00,1.4,北北西,1.8,北,16.2,97.2,0,0,0,6
181,2020-05-11T03:00:00,1.3,北北西,1.8,北,16.1,97.1,0,0,0,6
182,2020-05-11T03:01:00,1.3,北北西,1.7,北西,16.1,97.1,0,0,0,6
183,2020-05-11T03:02:00,1.3,北北西,1.7,北西,16.1,97.1,0,0,0,6
184,2020-05-11T03:03:00,1.4,北北西,1.9,北西,16.1,97.1,0,0,0,6
185,2020-05-11T03:04:00,1.4,北北西,2,北西,16.1,97.1,0,0,0,6
186,2020-05-11T03:05:00,1.4,北北西,2,北西,16.1,97.1,0,0,0,6
187,2020-05-11T03:06:00,1.4,北北西,2,北西,16.1,97.1,0,0,0,6
188,2020-05-11T03:07:00,1.4,北北西,2,北西,16.1,97.2,0,0,0,6
189,2020-05-11T03:08:00,1.3,北北西,2,北西,16.2,97.2,0,0,0,6
190,2020-05-11T03:09:00,1.3,北北西,2,北西,16.1,97.2,0,0,0,6
191,2020-05-11T03:10:00,1.2,北北西,2,北西,16.2,97.1,0,0,0,6
192,2020-05-11T03:11:00,1.1,北北西,2,北西,16.1,97.2,0,0,0,6
193,2020-05-11T03:12:00,1.1,北北西,2,北西,16.2,97.1,0,0,0,6
194,2020-05-11T03:13:00,1,北北西,2,北西,16.1,97.1,0,0,0,6
195,2020-05-11T03:14:00,0.9,北,1.9,北北西,16.2,97.2,0,0,0,6
196,2020-05-11T03:15:00,0.9,北,1.9,北北西,16.2,97.2,0,0,0,6
197,2020-05-11T03:16:00,0.9,北,1.5,北北西,16.2,97.1,0,0,0,6
198,2020-05-11T03:17:00,0.9,北,1.5,北北西,16.1,97.1,0,0,0,6
199,2020-05-11T03:18:00,0.9,北,1.5,北北西,16.2,97.1,0,0,0,6
200,2020-05-11T03:19:00,0.8,北,1.3,北北東,16.2,97.2,0,0,0,6
201,2020-05-11T03:20:00,0.8,北北東,1.3,北北東,16.2,97.2,0,0,0,6
202,2020-05-11T03:21:00,0.8,北北東,1.3,北北東,16.3,97.2,0,0,0,6
203,2020-05-11T03:22:00,0.8,北北東,1.3,北北東,16.2,97.2,0,0,0,6
204,2020-05-11T03:23:00,0.8,北北東,1.3,北北東,16.2,97.1,0,0,0,6
205,2020-05-11T03:24:00,0.8,北北東,1.3,北北東,16.2,97.1,0,0,0,6
206,2020-05-11T03:25:00,0.8,北北東,1.3,北北東,16.3,97.2,0,0,0,6
207,2020-05-11T03:26:00,0.7,北北東,1.2,北,16.3,97.2,0,0,0,6
208,2020-05-11T03:27:00,0.7,北北東,1.3,北東,16.3,97.1,0,0,0,6
209,2020-05-11T03:28:00,0.7,北北東,1.3,北東,16.2,97.1,0,0,0,6
210,2020-05-11T03:29:00,0.8,北北東,1.3,北東,16.2,97,0,0,0,6
211,2020-05-11T03:30:00,0.8,北北東,1.3,北東,16.2,97,0,0,0,6
212,2020-05-11T03:31:00,0.8,北北東,1.3,北東,16.2,97,0,0,0,6
213,2020-05-11T03:32:00,0.7,北北東,1.3,北東,16.3,97,0,0,0,6
214,2020-05-11T03:33:00,0.7,北北東,1.3,北東,16.3,97,0,0,0,6
215,2020-05-11T03:34:00,0.7,北北東,1.3,北東,16.2,97,0,0,0,6
216,2020-05-11T03:35:00,0.7,北北東,1.3,北東,16.3,96.9,0,0,0,6
217,2020-05-11T03:36:00,0.7,北,1.3,北東,16.3,97,0,0,0,6
218,2020-05-11T03:37:00,0.6,北,1.3,北北東,16.3,97,0,0,0,6
219,2020-05-11T03:38:00,0.6,北北西,1.1,北北東,16.4,97,0,0,0,6
220,2020-05-11T03:39:00,0.5,北北西,0.9,北北東,16.4,97,0,0,0,6
221,2020-05-11T03:40:00,0.5,北北西,0.8,西,16.3,96.9,0,0,0,6
222,2020-05-11T03:41:00,0.4,北北西,0.8,西,16.3,96.8,0,0,0,6
223,2020-05-11T03:42:00,0.4,北北西,0.8,西,16.3,96.8,0,0,0,6
224,2020-05-11T03:43:00,0.5,北北西,0.9,北東,16.2,96.8,0,0,0,6
225,2020-05-11T03:44:00,0.5,北北西,0.9,北東,16.3,96.8,0,0,0,6
226,2020-05-11T03:45:00,0.5,北北西,0.9,北東,16.3,96.9,0,0,0,6
227,2020-05-11T03:46:00,0.5,北,1,北北東,16.3,96.9,0,0,0,6
228,2020-05-11T03:47:00,0.5,北,1.1,北,16.3,96.8,0,0,0,6
229,2020-05-11T03:48:00,0.6,北,1.1,北,16.3,96.9,0,0,0,6
230,2020-05-11T03:49:00,0.7,北北東,1.1,北,16.3,96.9,0,0,0,6
231,2020-05-11T03:50:00,0.7,北北東,1.1,北,16.3,96.8,0,0,0,6
232,2020-05-11T03:51:00,0.8,北北東,1.1,北,16.2,96.9,0,0,0,6
233,2020-05-11T03:52:00,0.8,北北東,1.1,北,16.2,96.9,0,0,0,6
234,2020-05-11T03:53:00,0.8,北,1.1,北,16.2,96.8,0,0,0,6
235,2020-05-11T03:54:00,0.9,北,1.1,北,16.2,96.9,0,0,0,6
236,2020-05-11T03:55:00,0.8,北,1.1,北,16.2,96.9,0,0,0,6
237,2020-05-11T03:56:00,0.8,北,1.1,北,16.2,96.9,0,0,0,6
238,2020-05-11T03:57:00,0.8,北,1.1,北,16.2,97,0,0,0,6
239,2020-05-11T03:58:00,0.8,北,1.1,北,16.2,97,0,0,0,6
240,2020-05-11T03:59:00,0.8,北,1.1,北,16.2,97,0,0,0,6
241,2020-05-11T04:00:00,0.8,北,1.1,北,16.2,97,0,0,0,6
242,2020-05-11T04:01:00,0.7,北,1.1,北,16.2,97,0,0,0,6
243,2020-05-11T04:02:00,0.7,北,1.1,北,16.3,97.2,0,0,0,6
244,2020-05-11T04:03:00,0.6,北,1,北北東,16.3,97.3,0,0,0,6
245,2020-05-11T04:04:00,0.6,北北東,0.9,北,16.3,97.2,0,0,0,6
246,2020-05-11T04:05:00,0.6,北北東,0.9,北,16.3,97.2,0,0,0,6
247,2020-05-11T04:06:00,0.6,北北東,0.9,北,16.3,97.2,0,0,0,6
248,2020-05-11T04:07:00,0.5,北北東,0.9,北,16.3,97.2,0,0,0,6
249,2020-05-11T04:08:00,0.5,北北東,0.8,北,16.3,97.2,0,0,0,6
250,2020-05-11T04:09:00,0.5,北北東,0.7,北北東,16.3,97.2,0,0,0,6
251,2020-05-11T04:10:00,0.5,北北東,0.8,北北東,16.3,97.3,0,0,0,6
252,2020-05-11T04:11:00,0.5,北北東,0.8,北北東,16.3,97.3,0,0,0,6
253,2020-05-11T04:12:00,0.5,北北東,0.8,北北東,16.3,97.2,0,0,0,6
254,2020-05-11T04:13:00,0.5,北北東,0.8,北北東,16.3,97.1,0,0,0,6
255,2020-05-11T04:14:00,0.5,北北東,0.8,北北東,16.2,97.2,0,0,0,6
256,2020-05-11T04:15:00,0.5,北,0.8,北北東,16.2,97.1,0,0,0,6
257,2020-05-11T04:16:00,0.5,北,0.8,北北東,16.2,97.1,0,0,0,6
258,2020-05-11T04:17:00,0.5,北,0.8,北北東,16.2,97.2,0,0,0,6
259,2020-05-11T04:18:00,0.5,北,0.8,北北東,16.2,97.2,0,0,0,6
260,2020-05-11T04:19:00,0.5,北,0.8,北北東,16.2,97.2,0,0,0,6
261,2020-05-11T04:20:00,0.4,北北西,0.8,北,16.2,97.2,0,0,0,6
262,2020-05-11T04:21:00,0.4,北北西,0.8,北,16.1,97.1,0,0,0,6
263,2020-05-11T04:22:00,0.4,北北西,1.1,南東,16.1,97.1,0,0,0,6
264,2020-05-11T04:23:00,0.5,南東,1.3,東南東,16.1,97.2,0,0,0,6
265,2020-05-11T04:24:00,0.5,南東,1.3,東南東,16.1,97.3,0,0,0,6
266,2020-05-11T04:25:00,0.5,南東,1.3,東南東,16.1,97.3,0,0,0,6
267,2020-05-11T04:26:00,0.5,南東,1.3,東南東,16.2,97.3,0,0,0,6
268,2020-05-11T04:27:00,0.5,東南東,1.3,東南東,16.1,97.3,0,0,0,6
269,2020-05-11T04:28:00,0.5,東南東,1.3,東南東,16.1,97.3,0,0,0,6
270,2020-05-11T04:29:00,0.5,東,1.3,東南東,16.1,97.3,0,0,0,6
271,2020-05-11T04:30:00,0.6,東北東,1.3,東南東,16.1,97.3,0,0,0,6
272,2020-05-11T04:31:00,0.6,東北東,1.3,東南東,15.9,97.2,0,0,0,6
273,2020-05-11T04:32:00,0.5,北東,1.3,東南東,15.9,97.1,0,0,0,6
274,2020-05-11T04:33:00,0.5,北北東,1.2,東南東,15.8,97.1,0,0,0,6
275,2020-05-11T04:34:00,0.4,北,1,東,15.8,97.1,0,0,0,6
276,2020-05-11T04:35:00,0.3,北北西,0.8,東北東,15.9,97.3,0,0,0,6
277,2020-05-11T04:36:00,0.3,北西,0.8,東北東,15.8,97.3,0,0,0,6
278,2020-05-11T04:37:00,0.3,西北西,0.6,西北西,15.9,97.4,0,0,0,6
279,2020-05-11T04:38:00,0.4,西,0.9,南西,15.9,97.4,0,0,0,6
280,2020-05-11T04:39:00,0.4,西,0.9,南西,15.9,97.4,0,0,0,6
281,2020-05-11T04:40:00,0.5,西南西,0.9,南西,15.9,97.4,0,0,0,6
282,2020-05-11T04:41:00,0.5,西南西,0.9,南西,15.9,97.5,0,0,0,6
283,2020-05-11T04:42:00,0.5,西南西,0.9,南西,16,97.6,0,0,0,6
284,2020-05-11T04:43:00,0.5,西南西,0.9,南西,15.9,97.5,0,0,0,6
285,2020-05-11T04:44:00,0.5,西南西,0.9,南西,15.9,97.5,0,0,0,6
286,2020-05-11T04:45:00,0.5,西南西,0.9,南西,15.9,97.5,0,0,0,6
287,2020-05-11T04:46:00,0.6,西南西,0.9,南西,15.9,97.5,0,0,0,6
288,2020-05-11T04:47:00,0.6,西南西,0.9,南西,15.8,97.5,0,0,0,6
289,2020-05-11T04:48:00,0.6,西,0.8,西北西,15.8,97.4,0,0,0,6
290,2020-05-11T04:49:00,0.5,西,0.8,西北西,15.8,97.5,0,0,0,6
291,2020-05-11T04:50:00,0.5,西北西,0.8,西北西,15.8,97.5,0,0,0,6
292,2020-05-11T04:51:00,0.5,北西,0.8,西北西,15.8,97.5,0,0,0,6
293,2020-05-11T04:52:00,0.5,北北西,0.8,西北西,15.9,97.6,0,0,0,6
294,2020-05-11T04:53:00,0.5,北,1,北東,15.9,97.6,0,0,0,6
295,2020-05-11T04:54:00,0.6,北北東,1.4,北東,15.7,97.5,0,0,0,6
296,2020-05-11T04:55:00,0.6,北北東,1.4,北東,15.6,97.3,0,0,0,6
297,2020-05-11T04:56:00,0.7,北東,1.4,北東,15.6,97.4,0,0,0,6
298,2020-05-11T04:57:00,0.7,北東,1.4,北東,15.6,97.4,0,0,0,6
299,2020-05-11T04:58:00,0.7,北東,1.4,北東,15.6,97.4,0,0,0,6
300,2020-05-11T04:59:00,0.8,北東,1.4,北東,15.5,97.4,0,0,0,6
301,2020-05-11T05:00:00,0.8,東北東,1.4,北東,15.6,97.4,0,0,0,6
302,2020-05-11T05:01:00,0.8,東北東,1.4,北東,15.6,97.6,0,0,0,6
303,2020-05-11T05:02:00,0.8,北東,1.4,北東,15.6,97.6,0,0,0,6
304,2020-05-11T05:03:00,0.7,北東,1.4,北東,15.5,97.5,0,0,0,6
305,2020-05-11T05:04:00,0.6,北東,1.4,北東,15.5,97.4,0,0,0,6
306,2020-05-11T05:05:00,0.6,北北東,1.3,北東,15.5,97.5,0,0,0,6
307,2020-05-11T05:06:00,0.5,北,1.1,北東,15.5,97.6,0,0,0,6
308,2020-05-11T05:07:00,0.5,北,1,北東,15.5,97.6,0,0,0,6
309,2020-05-11T05:08:00,0.5,北北西,0.9,西北西,15.6,97.6,0,0,0,6
310,2020-05-11T05:09:00,0.5,北西,1,西北西,15.6,97.6,0,0,0,6
311,2020-05-11T05:10:00,0.6,北西,1,西北西,15.6,97.7,0,0,0,6
312,2020-05-11T05:11:00,0.6,北西,1,西北西,15.6,97.6,0,0,0,6
313,2020-05-11T05:12:00,0.7,北西,1,西北西,15.6,97.6,0,0,0,6
314,2020-05-11T05:13:00,0.7,北西,1,西北西,15.6,97.6,0,0,0,6
315,2020-05-11T05:14:00,0.8,北西,1,西北西,15.6,97.6,0,0,0,6
316,2020-05-11T05:15:00,0.8,北西,1.1,北北西,15.6,97.6,0,0,0,6
317,2020-05-11T05:16:00,0.8,北西,1.1,北北西,15.6,97.6,0,0,0,6
318,2020-05-11T05:17:00,0.8,北西,1.1,北北西,15.6,97.6,0,0,0,6
319,2020-05-11T05:18:00,0.8,北西,1.1,北北西,15.6,97.6,0,0,0,6
320,2020-05-11T05:19:00,0.9,北北西,1.1,北北西,15.6,97.6,0,0,0,6
321,2020-05-11T05:20:00,0.9,北北西,1.2,北,15.4,97.6,0,0,0,6
322,2020-05-11T05:21:00,0.9,北北西,1.4,北北東,15.5,97.5,0,0,0,6
323,2020-05-11T05:22:00,0.9,北,1.4,北北東,15.5,97.6,0,0,0,6
324,2020-05-11T05:23:00,0.9,北,1.4,北北東,15.4,97.6,0,0,0,6
325,2020-05-11T05:24:00,0.9,北,1.4,北北東,15.4,97.6,0,0,0,6
326,2020-05-11T05:25:00,0.9,北,1.4,北北東,15.4,97.6,0,0,0,6
327,2020-05-11T05:26:00,0.9,北,1.4,北北東,15.4,97.6,0,0,0,6
328,2020-05-11T05:27:00,0.9,北,1.4,北北東,15.4,97.6,0,0,0,6
329,2020-05-11T05:28:00,0.9,北,1.4,北北東,15.5,97.6,0,0,0,6
330,2020-05-11T05:29:00,1,北,1.4,北北東,15.5,97.7,0,0,0,6
331,2020-05-11T05:30:00,1,北,1.4,北北東,15.5,97.7,0,0,0,6
332,2020-05-11T05:31:00,1,北,1.4,北北西,15.5,97.7,0,0,0,6
333,2020-05-11T05:32:00,1,北,1.5,北,15.5,97.7,0,0,0,6
334,2020-05-11T05:33:00,1.1,北,1.5,北,15.5,97.7,0,0,0,6
335,2020-05-11T05:34:00,1.1,北,1.5,北,15.5,97.7,0,0,0,6
336,2020-05-11T05:35:00,1.2,北,1.5,北,15.6,97.7,0,0,0,6
337,2020-05-11T05:36:00,1.2,北,1.5,北,15.6,97.7,0,0,0,6
338,2020-05-11T05:37:00,1.3,北,1.6,北,15.5,97.7,0,0,0,6
339,2020-05-11T05:38:00,1.3,北,1.6,北,15.6,97.7,0,0,0,6
340,2020-05-11T05:39:00,1.3,北,1.7,北,15.6,97.7,0,0,0,6
341,2020-05-11T05:40:00,1.3,北,1.7,北,15.6,97.7,0,0,0,6
342,2020-05-11T05:41:00,1.3,北,1.7,北,15.6,97.7,0,0,0,6
343,2020-05-11T05:42:00,1.3,北,1.7,北,15.6,97.7,0,0,0,6
344,2020-05-11T05:43:00,1.3,北,1.7,北,15.7,97.7,0,0,0,6
345,2020-05-11T05:44:00,1.2,北,1.7,北,15.7,97.7,0,0,0,6
346,2020-05-11T05:45:00,1.2,北,1.7,北,15.6,97.7,0,0,0,6
347,2020-05-11T05:46:00,1.2,北,1.7,北,15.7,97.7,0,0,0,6
348,2020-05-11T05:47:00,1.2,北,1.7,北,15.7,97.7,0,0,0,6
349,2020-05-11T05:48:00,1.1,北,2,北西,15.7,97.7,0,0,0,6
350,2020-05-11T05:49:00,1.2,北北西,2,北西,15.8,97.7,0,0,0,6
351,2020-05-11T05:50:00,1.1,北北西,2,北西,15.9,97.8,0,0,0,6
352,2020-05-11T05:51:00,1.1,北北西,2,北西,15.9,97.8,0,0,0,6
353,2020-05-11T05:52:00,1.1,北西,2,北西,15.8,97.8,0,0,0,6
354,2020-05-11T05:53:00,1.1,北西,2,北西,15.8,97.7,0,0,0,6
355,2020-05-11T05:54:00,1,北西,2,北西,15.9,97.8,0,0,0,6
356,2020-05-11T05:55:00,1,北西,2,北西,16,97.8,0,0,0,6
357,2020-05-11T05:56:00,1,西北西,2,北西,15.9,97.8,0,0,0,6
358,2020-05-11T05:57:00,0.9,西北西,2,北西,16,97.8,0,0,0,6
359,2020-05-11T05:58:00,0.8,西北西,1.8,西北西,16.1,97.8,0,0,0,6
360,2020-05-11T05:59:00,0.8,西北西,1.6,西,16.1,97.8,0,0,0,6
361,2020-05-11T06:00:00,0.7,西北西,1.6,西,16.1,97.8,0,0,0,6
362,2020-05-11T06:01:00,0.7,西北西,1.6,西,16.1,97.7,0,0,0,6
363,2020-05-11T06:02:00,0.6,北西,1.2,西北西,16.1,97.8,0,0,0,6
364,2020-05-11T06:03:00,0.5,北西,1.1,西北西,16.1,97.7,0,0,0,6
365,2020-05-11T06:04:00,0.5,北西,1.1,西北西,16.1,97.7,0,0,0,6
366,2020-05-11T06:05:00,0.5,北西,1.1,西北西,16.2,97.7,0,0,0,6
367,2020-05-11T06:06:00,0.5,北西,1.1,西北西,16.2,97.8,0,0,0,6
368,2020-05-11T06:07:00,0.4,西北西,0.8,北東,16.1,97.7,0,0,0,6
369,2020-05-11T06:08:00,0.4,西北西,0.8,北東,16.2,97.7,0,0,0,6
370,2020-05-11T06:09:00,0.4,西北西,0.8,北東,16.2,97.6,0,0,0,6
371,2020-05-11T06:10:00,0.3,西北西,0.8,北東,16.1,97.6,0,0,0,6
372,2020-05-11T06:11:00,0.3,西北西,0.8,北北東,16,97.5,0,0,0,6
373,2020-05-11T06:12:00,0.3,西北西,0.9,東北東,16.1,97.6,0,0,0,6
374,2020-05-11T06:13:00,0.4,西北西,1,北東,16.1,97.5,0,0,0,6
375,2020-05-11T06:14:00,0.4,北西,1,北東,16,97.5,0,0,0,6
376,2020-05-11T06:15:00,0.4,北北西,1,北東,16,97.4,0,0,0,6
377,2020-05-11T06:16:00,0.4,北北東,1,北東,16,97.3,0,0,0,6
378,2020-05-11T06:17:00,0.4,北東,1,北東,16,97.4,0,0,0,6
379,2020-05-11T06:18:00,0.4,東北東,1,北東,16.1,97.5,0,0,0,6
380,2020-05-11T06:19:00,0.5,東北東,1,北東,16.1,97.5,0,0,0,6
381,2020-05-11T06:20:00,0.5,東北東,1.3,東南東,16.1,97.5,0,0,0,6
382,2020-05-11T06:21:00,0.6,東,1.3,東南東,16.1,97.4,0,0,0,6
383,2020-05-11T06:22:00,0.6,東,1.3,東南東,16,97.2,0,0,0,6
384,2020-05-11T06:23:00,0.5,東,1.3,東南東,16.1,97.4,0,0,0,6
385,2020-05-11T06:24:00,0.6,東,1.3,東南東,16.1,97.5,0,0,0,6
386,2020-05-11T06:25:00,0.6,東,1.3,東南東,16.2,97.5,0,0,0,6
387,2020-05-11T06:26:00,0.7,東,1.6,東,16.1,97.4,0,0,0,6
388,2020-05-11T06:27:00,0.8,東,1.6,東,16.1,97.1,0,0,0,6
389,2020-05-11T06:28:00,0.8,東,1.6,東,16.1,97.2,0,0,0,6
390,2020-05-11T06:29:00,0.8,東,1.6,東,16.1,97.1,0,0,0,6
391,2020-05-11T06:30:00,0.8,東,1.6,東,16.1,97.2,0,0,0,6
392,2020-05-11T06:31:00,0.7,東北東,1.6,東,16.1,97.2,0,0,0,6
393,2020-05-11T06:32:00,0.7,東北東,1.6,東,16.1,97.3,0,0,0,6
394,2020-05-11T06:33:00,0.7,東,1.6,東,16.2,97.2,0,0,0,6
395,2020-05-11T06:34:00,0.7,東,1.6,東,16.1,97.2,0,0,0,6
396,2020-05-11T06:35:00,0.8,東南東,1.6,東,16,96.9,0,0,0,6
397,2020-05-11T06:36:00,0.8,南東,1.7,南西,16,96.9,0,0,0,6
398,2020-05-11T06:37:00,0.9,南南東,1.9,南南西,16,96.8,0,0,0,6
399,2020-05-11T06:38:00,0.9,南南西,1.9,南南西,15.9,96.7,0,0,0,6
400,2020-05-11T06:39:00,0.9,南南西,1.9,南南西,15.9,96.7,0,0,0,6
401,2020-05-11T06:40:00,1,南南西,1.9,南南西,16,96.9,0,0,0,6
402,2020-05-11T06:41:00,1.1,南南西,1.9,南南西,16,97,0,0,0,6
403,2020-05-11T06:42:00,1.1,南南西,1.9,南南西,16,96.9,0,0,0,6
404,2020-05-11T06:43:00,1.2,南南西,1.9,南南西,16,96.8,0,0,0,6
405,2020-05-11T06:44:00,1.2,南南西,1.9,南南西,16,96.7,0,0,0,6
406,2020-05-11T06:45:00,1.1,南,1.9,南南西,16,96.7,0,0,0,6
407,2020-05-11T06:46:00,1,南,1.9,南南西,15.9,96.7,0,0,0,6
408,2020-05-11T06:47:00,0.9,南,1.6,南南東,16,96.8,0,0,0,6
409,2020-05-11T06:48:00,0.7,南,1.6,南南東,16.2,97.1,0,0,0,6
410,2020-05-11T06:49:00,0.6,南,1.6,南南東,16.4,97.3,0,0,0,6
411,2020-05-11T06:50:00,0.6,南,1.6,南南東,16.4,97.2,0,0,0,6
412,2020-05-11T06:51:00,0.6,南南西,1.6,南南東,16.5,97,0,0,0,6
413,2020-05-11T06:52:00,0.6,南南西,1.3,南西,16.5,96.9,0,0,0,6
414,2020-05-11T06:53:00,0.5,南南西,1.3,南西,16.5,96.6,0,0,0,6
415,2020-05-11T06:54:00,0.4,南南西,1.3,南西,16.4,96.5,0,0,0,6
416,2020-05-11T06:55:00,0.4,南南西,1.3,南西,16.5,96.3,0,0,0,6
417,2020-05-11T06:56:00,0.5,南西,1.3,南西,16.4,96.2,0,0,0,6
418,2020-05-11T06:57:00,0.5,南南西,1.3,南西,16.3,95.8,0,0,0,6
419,2020-05-11T06:58:00,0.5,南,1.3,南西,16.3,95.7,0,0,0,6
420,2020-05-11T06:59:00,0.6,南,1.3,南西,16.2,95.6,0,0,0,6
421,2020-05-11T07:00:00,0.6,南南東,1.3,南西,16.2,95.5,0,0,0,6
422,2020-05-11T07:01:00,0.6,南東,1.3,南西,16.2,95.5,0,0,0,6
423,2020-05-11T07:02:00,0.6,東南東,1.3,東,16.3,95.7,0,0,0,6
424,2020-05-11T07:03:00,0.6,東南東,1.4,南南東,16.3,95.8,0,0,0,6
425,2020-05-11T07:04:00,0.7,東南東,1.4,南南東,16.3,95.7,0,0,0,6
426,2020-05-11T07:05:00,0.7,東南東,1.4,南南東,16.3,95.7,0,0,0,6
427,2020-05-11T07:06:00,0.7,南東,1.4,南南東,16.3,95.7,0,0,0,6
428,2020-05-11T07:07:00,0.7,南東,1.4,南南東,16.4,95.7,0,0,0,6
429,2020-05-11T07:08:00,0.6,南東,1.4,南南東,16.5,95.9,0,0,0,6
430,2020-05-11T07:09:00,0.7,東南東,1.4,南南東,16.5,95.7,0,0,0,6
431,2020-05-11T07:10:00,0.6,東南東,1.4,南南東,16.2,95,0,0,0,6